User: anonymous   Login
Location: Oshawa
(43.9000°N, 78.8670°W)
Time: 13:43:47
(UTC-05:00)
Language:

Cosmos 1408 Rocket - Orbit

View from above orbital plane
View from above orbital plane
View from above satellite
View from above satellite

Ground track
Ground track

The orbit data is extracted from the following two-line orbital elements,

1 13553U 82092B   18052.41938765  .00000096  00000-0  85506-5 0  9991
2 13553  82.5711   1.8682 0020099 303.7676 195.8473 14.84157773914008
Epoch (UTC): 21 February 2018 10:03:55
Eccentricity: 0.0020099
inclination: 82.5711°
perigee height: 602 km
apogee height: 630 km
right ascension of ascending node: 1.8682°
argument of perigee: 303.7676°
revolutions per day: 14.84157773
mean anomaly at epoch: 195.8473°
orbit number at epoch: 91400

The dashed part of the orbit path shows where the satellite is in the earth's shadow,  

DLR